Hastings, NE

3:17 AM CDT on August 18, 2017 (GMT -0500)
Hastings Municipal

Weather History for KHSI - August, 2014

Change the Weather History Date:

Monday, August 18, 2014

  Actual Average Record
Temperature  
Mean Temperature 73 °F 74 °F  
Max Temperature 85 °F 85 °F 109 °F (1936)
Min Temperature 60 °F 63 °F 46 °F (1943)
Degree Days  
Heating Degree Days 0 0  
Month to date heating degree days 0 0  
Since 1 June heating degree days 14 22  
Since 1 July heating degree days 6 1  
Cooling Degree Days 8 9  
Month to date cooling degree days 171 191  
Year to date cooling degree days 800 851  
Since 1 June cooling degree days 682 792  
Growing Degree Days 22 (Base 50)    
Moisture  
Dew Point 61 °F    
Average Humidity 66    
Maximum Humidity 90    
Minimum Humidity 41    
Precipitation  
Precipitation 0.00 in 0.12 in 1.98 in (1997)
Month to date precipitation 2.98 1.71  
Year to date precipitation 20.09 19.07  
Snow  
Snow 0.00 in 0.00 in - ()
Month to date snowfall 0.0 0.0  
Since 1 June snowfall 0.0 0.0  
Since 1 July snowfall 0.0 0.0  
Snow Depth 0.00 in    
Sea Level Pressure  
Sea Level Pressure 29.85 in    
Wind  
Wind Speed 3 mph (ENE)    
Max Wind Speed 13 mph    
Max Gust Speed 17 mph    
Visibility 10 miles    
Events      
T = Trace of Precipitation, MM = Missing Value Source: NWS Daily Summary

Daily Weather History Graph

Daily Weather History Graph

Search for Another Location

Airport or City:

Trip Planner

Search our weather history database for the weather conditions in past years. The results will help you decide how hot, cold, wet, or windy it might be!

Date:

Astronomy

Aug. 18, 2014 Rise Set
Actual Time 6:47 AM CDT 8:27 PM CDT
Civil Twilight 6:18 AM CDT 8:56 PM CDT
Nautical Twilight 5:42 AM CDT 9:31 PM CDT
Astronomical Twilight 5:05 AM CDT 10:08 PM CDT
Moon 12:55 AM CDT 3:32 PM CDT
Length of Visible Light 14h 37m
Length of Day
13h 39m
Last Quarter, 38% of the Moon is Illuminated
Aug 18
Last Quarter
Aug 25
New
Sep 2
First Quarter
Sep 8
Full
Sep 15
Last Quarter

Hourly Weather History & Observations

Time (CDT) Temp. Heat Index Dew Point Humidity Pressure Visibility Wind Dir Wind Speed Gust Speed Precip Events Conditions
12:53 AM 75.0 °F - 50.0 °F 41% 29.83 in 10.0 mi ESE 11.5 mph - N/A   Clear
1:53 AM 69.8 °F - 53.6 °F 56% 29.92 in 10.0 mi South 4.6 mph - N/A   Clear
2:53 AM 66.0 °F - 55.9 °F 70% 29.86 in 10.0 mi SW 5.8 mph - N/A   Clear
3:53 AM 64.0 °F - 57.0 °F 78% 29.87 in 10.0 mi SW 4.6 mph - N/A   Clear
4:53 AM 62.1 °F - 57.0 °F 84% 29.88 in 10.0 mi North 5.8 mph - N/A   Clear
5:53 AM 61.0 °F - 57.0 °F 87% 29.89 in 10.0 mi NNW 3.5 mph - N/A   Clear
6:53 AM 61.0 °F - 55.9 °F 83% 29.89 in 10.0 mi Calm Calm - N/A   Clear
7:53 AM 63.0 °F - 57.9 °F 84% 29.89 in 10.0 mi Calm Calm - N/A   Clear
8:53 AM 68.0 °F - 59.0 °F 73% 29.90 in 10.0 mi NW 3.5 mph - N/A   Clear
9:53 AM 73.0 °F - 59.0 °F 61% 29.90 in 10.0 mi North 5.8 mph - N/A   Clear
10:53 AM 75.0 °F - 60.1 °F 60% 29.88 in 10.0 mi Calm Calm - N/A   Clear
11:53 AM 77.0 °F - 61.0 °F 58% 29.87 in 10.0 mi Calm Calm - N/A   Clear
12:53 PM 81.0 °F 82.2 °F 63.0 °F 54% 29.85 in 10.0 mi Variable 4.6 mph - N/A   Clear
1:53 PM 81.0 °F 82.2 °F 63.0 °F 54% 29.85 in 10.0 mi Variable 3.5 mph - N/A   Clear
2:53 PM 82.9 °F 84.6 °F 64.9 °F 54% 29.83 in 10.0 mi Variable 3.5 mph - N/A   Clear
3:53 PM 84.9 °F 86.1 °F 64.0 °F 49% 29.82 in 10.0 mi NNE 4.6 mph - N/A   Clear
4:53 PM 84.0 °F 85.8 °F 64.9 °F 53% 29.81 in 10.0 mi SE 6.9 mph - N/A   Clear
5:53 PM 84.0 °F 84.9 °F 63.0 °F 49% 29.80 in 10.0 mi SE 8.1 mph - N/A   Clear
6:53 PM 82.0 °F 84.1 °F 66.0 °F 58% 29.79 in 10.0 mi ESE 3.5 mph - N/A   Clear
7:53 PM 79.0 °F - 68.0 °F 69% 29.80 in 10.0 mi ENE 4.6 mph - N/A   Clear
8:53 PM 77.0 °F - 68.0 °F 74% 29.82 in 10.0 mi Variable 3.5 mph - N/A   Clear
9:53 PM 75.9 °F - 66.9 °F 74% 29.81 in 10.0 mi Calm Calm - N/A   Clear
10:53 PM 73.0 °F - 66.9 °F 81% 29.81 in 10.0 mi Calm Calm - N/A   Clear
11:53 PM 72.0 °F - 66.9 °F 84% 29.81 in 10.0 mi Calm Calm - N/A   Clear